Home > Time Zones > World Clock > Weather > Italy > Parma > Past weeks

Flag for Italy Weather past 2 weeks in Parma, Italy

Now
70 °F

Passing clouds.


Feels Like: 70 °F
Forecast: 58 / 78 °F
Wind: 8 mph from East

Location: Parma

Current Time: Sep 17, 2014 at 10:06:41 PM

Latest Report: Sep 17, 2014 at 8:50 PM


Visibility: N/A

Pressure: 30.01 "Hg

Humidity: 64%

Dew point: 57 °F

Location of ParmaLocation

Historic Weather in Parma — Graph

°F

Parma temperature yesterday

Maximum temperature yesterday: 75 °F (at 1:50 PM)
Minimum temperature yesterday: 63 °F (at 6:00 AM)
Average temperature yesterday: 69 °F

Past Weeks' High & Low Weather Summary

 TemperatureHumidityPressure
High84 °F (Sep 9, 2:50 PM)100% (Sep 10, 6:00 AM)30.07 "Hg (Sep 10, 6:00 AM)
Low54 °F (Sep 13, 6:00 AM)42% (Sep 6, 5:50 PM)29.80 "Hg (Sep 11, 4:50 PM)
Average70 °F73%29.97 "Hg
* Reported Sep 2 7:50 PM — Sep 17 7:50 PM, Parma, Weather by CustomWeather, © 2014

Note: Actual official high and low records may vary slightly from our data, if they occured in-between our weather recording intervals... More about our weather records

Advertising

Parma weather history for previous 24 hours

 ConditionsComfort  
Time TempWeatherWind HumidityBarometerVisibility
7:50 PM
Sep 17
72 °FSunny.5 mph65%29.98 "Hg10 mi
6:50 PM73 °FSunny.3 mph61%30.01 "Hg10 mi
5:50 PM73 °FPassing clouds.6 mph61%29.98 "HgN/A
4:50 PM75 °FPassing clouds.9 mph57%29.98 "HgN/A
3:50 PM75 °FPassing clouds.8 mph61%29.98 "HgN/A
2:50 PM75 °FScattered clouds.7 mph61%30.01 "HgN/A
1:50 PM75 °FScattered clouds.7 mph57%30.01 "HgN/A
12:50 PM73 °FSunny.7 mph57%30.04 "Hg10 mi
11:50 AM72 °FSunny.7 mph69%30.04 "Hg10 mi
10:50 AM70 °FPassing clouds.6 mph73%30.04 "HgN/A
9:50 AM66 °FClear.5 mph83%30.04 "Hg4 mi
8:50 AM64 °FFog.No wind88%30.04 "Hg2 mi
7:50 AM61 °FFog.5 mph94%30.04 "Hg2 mi
6:50 AM59 °FFog.2 mph100%30.04 "Hg2 mi
6:00 AM59 °FFog.5 mph100%30.04 "Hg3 mi
11:50 PM
Sep 16
64 °FClear.1 mph88%30.04 "Hg10 mi
10:50 PM66 °FPassing clouds.1 mph83%30.04 "HgN/A
Weather by CustomWeather, © 2014

See weather overviewHow to use our weather pages